Ardmore, OK

12:46 PM CDT on April 19, 2018 (GMT -0500)
Ardmore Municipal

Weather History for KADM - December, 2012

Change the Weather History Date:

Wednesday, December 19, 2012

  Actual Average Record
Temperature  
Mean Temperature 53 °F -  
Max Temperature 71 °F 50 °F 71 °F (2012)
Min Temperature 35 °F 31 °F 9 °F (2016)
Degree Days  
Heating Degree Days 12    
Growing Degree Days 3 (Base 50)    
Moisture  
Dew Point 38 °F    
Average Humidity 76    
Maximum Humidity 94    
Minimum Humidity 33    
Precipitation  
Precipitation 0.00 in - - ()
Sea Level Pressure  
Sea Level Pressure 29.71 in    
Wind  
Wind Speed 4 mph (SW)    
Max Wind Speed 34 mph    
Max Gust Speed 44 mph    
Visibility 10 miles    
Events      
Averages and records for this station are not official NWS values.
T = Trace of Precipitation, MM = Missing Value Source: NWS Daily Summary

Daily Weather History Graph

Daily Weather History Graph

Search for Another Location

Airport or City:

Astronomy

Dec. 19, 2012 Rise Set
Actual Time 7:29 AM CST 5:21 PM CST
Civil Twilight 7:01 AM CST 5:49 PM CST
Nautical Twilight 6:30 AM CST 6:20 PM CST
Astronomical Twilight 5:59 AM CST 6:51 PM CST
Moon 11:56 AM CST No Moon Set
Length of Visible Light 10h 47m
Length of Day
9h 51m
Waxing Crescent, 45% of the Moon is Illuminated
Dec 19
Waxing Crescent
Dec 19
First Quarter
Dec 28
Full
Jan 4
Last Quarter
Jan 11
New

Hourly Weather History & Observations

Time (CST) Temp. Windchill Dew Point Humidity Pressure Visibility Wind Dir Wind Speed Gust Speed Precip Events Conditions
12:15 AM 35.6 °F - 33.8 °F 93% 29.76 in 10.0 mi Calm Calm - N/A   Unknown
12:35 AM 35.6 °F - 32.0 °F 87% 29.75 in 10.0 mi Calm Calm - N/A   Unknown
12:55 AM 35.6 °F - 32.0 °F 87% 29.75 in 10.0 mi Calm Calm - N/A   Unknown
1:15 AM 35.6 °F 32.8 °F 33.8 °F 93% 29.73 in 10.0 mi SSE 3.5 mph - N/A   Unknown
1:35 AM 37.4 °F - 33.8 °F 87% 29.73 in 10.0 mi Calm Calm - N/A   Unknown
1:55 AM 39.2 °F - 33.8 °F 81% 29.73 in 10.0 mi Calm Calm - N/A   Unknown
2:15 AM 37.4 °F - 33.8 °F 87% 29.73 in 10.0 mi Calm Calm - N/A   Unknown
2:35 AM 41.0 °F - 33.8 °F 76% 29.73 in 10.0 mi Calm Calm - N/A   Unknown
2:55 AM 39.2 °F - 33.8 °F 81% 29.72 in 10.0 mi Calm Calm - N/A   Unknown
3:15 AM 39.2 °F - 33.8 °F 81% 29.71 in 10.0 mi Calm Calm - N/A   Unknown
3:35 AM 39.2 °F - 33.8 °F 81% 29.70 in 10.0 mi Calm Calm - N/A   Unknown
3:55 AM 41.0 °F - 35.6 °F 81% 29.70 in 10.0 mi Calm Calm - N/A   Unknown
4:15 AM 42.8 °F - 37.4 °F 81% 29.70 in 10.0 mi Calm Calm - N/A   Unknown
4:35 AM 42.8 °F - 37.4 °F 81% 29.70 in 10.0 mi Calm Calm - N/A   Unknown
4:55 AM 42.8 °F - 39.2 °F 87% 29.70 in 10.0 mi Calm Calm - N/A   Unknown
5:15 AM 41.0 °F - 37.4 °F 87% 29.69 in 10.0 mi Calm Calm - N/A   Unknown
5:35 AM 41.0 °F - 37.4 °F 87% 29.69 in 10.0 mi Calm Calm - N/A   Unknown
8:55 AM 60.8 °F - 59.0 °F 94% 29.69 in 7.0 mi SE 3.5 mph - N/A   Overcast
10:55 AM 68.0 °F - 62.6 °F 83% 29.67 in 10.0 mi South 10.4 mph 16.1 mph N/A   Overcast
11:55 AM 69.8 °F - 60.8 °F 73% 29.63 in 10.0 mi South 11.5 mph - N/A   Overcast
12:55 PM 71.6 °F - 60.8 °F 69% 29.58 in 10.0 mi South 15.0 mph 20.7 mph N/A   Overcast
10:35 PM 55.4 °F - 26.6 °F 33% 29.68 in 10.0 mi West 33.4 mph 42.6 mph N/A   Unknown
10:55 PM 53.6 °F - 26.6 °F 35% 29.69 in 10.0 mi West 26.5 mph 35.7 mph N/A   Unknown
11:15 PM 50.0 °F - 28.4 °F 43% 29.73 in 10.0 mi West 31.1 mph 43.7 mph N/A   Unknown
11:35 PM 44.6 °F 34.9 °F 30.2 °F 57% 29.75 in 10.0 mi West 28.8 mph 42.6 mph N/A   Unknown
11:55 PM 44.6 °F 34.1 °F 30.2 °F 57% 29.78 in 10.0 mi West 34.5 mph 43.7 mph N/A   Unknown